Weather Roundup
Issued by NWS

Home | Current Version | Previous Version | Text Only | Print | Product List | Glossary On
Versions: 1 2 3 4 5 6 7 8 9 10 11 12 13 14 15 16 17 18 19 20 21 22 23 24 25 26 27 28 29 30 31 32 33 34 35 36 37 38 39 40 41 42 43 44 45 46 47 48 49 50
000
NZUS93 KARX 230510
HRRWXR

CURRENT HOURLY OBSERVATIONS ACROSS
MUCH OF THE UPPER MISSISSIPPI VALLEY
NATIONAL WEATHER SERVICE LA CROSSE WI
1200 AM CDT WED JUL 23 2014


...SOUTHEAST MINNESOTA...


CITY           SKY/WX    TMP DP  RH WIND       PRES   REMARKS
ROCHESTER      CLEAR     67  58  72 N8        30.15R
ROCHESTER/MAYO FAIR      69  56  64 NW7       30.15R
WINONA         CLEAR     70  63  78 NW3       30.11R
AUSTIN         CLEAR     66  57  72 N6        30.15R
ALBERT LEA     CLEAR     68  55  64 N7        30.16R
DODGE CENTER   CLEAR     64  57  77 NW7       30.16R
PRESTON        CLEAR     67  64  91 N8        30.14R
OWATONNA       CLEAR     63  55  77 NW5       30.17R
FARIBAULT      CLEAR     66  55  68 NW3       30.17R
$$

...ELSEWHERE IN MINNESOTA...


CITY           SKY/WX    TMP DP  RH WIND       PRES   REMARKS
MINNEAPOLIS    CLEAR     71  56  58 N9        30.16R
INTNL FALLS    PTCLDY    61  56  83 CALM      30.20R
DULUTH         CLEAR     62  53  72 NW5       30.18R
RED WING       CLEAR     70  55  60 N7        30.12R
REDWOOD FALLS  CLEAR     67  57  70 NW8       30.20R
MANKATO        CLEAR     66  54  63 N7        30.17R
WORTHINGTON    CLEAR     61  55  82 NW7       30.24R
FAIRMONT       CLEAR     64  54  68 N7        30.18S
$$

...SOUTHWEST WISCONSIN...


CITY           SKY/WX    TMP DP  RH WIND       PRES   REMARKS
LA CROSSE      CLEAR     71  63  75 N5        30.09R
PRAIRIE DU CHI CLEAR     71  64  77 CALM      30.07R
BOSCOBEL       PTCLDY    70  64  81 CALM      30.07R
LONE ROCK      CLEAR     77  64  64 N8        30.07R
PLATTEVILLE    CLEAR     71  66  83 N9        30.07R
FORT MC COY    CLEAR     69  59  71 CALM      30.11R
CAMP DOUGLAS   CLEAR     66  60  78 N5        30.10R
VIROQUA        FAIR      67  63  86 N7        30.10R
WIS DELLS      PTCLDY    70  57  64 NE8       30.09R
$$

...ELSEWHERE IN WISCONSIN...


CITY           SKY/WX    TMP DP  RH WIND       PRES   REMARKS
MILWAUKEE      CLOUDY    66  59  78 NE15G24   30.04R
MADISON        CLEAR     73  64  73 N14       30.05R
GREEN BAY      CLEAR     65  56  72 N10       30.08R
EAU CLAIRE     CLEAR     66  61  84 N5        30.13R
BLACK RVR FLS  FAIR      69  59  70 N3        30.11R
MEDFORD        CLEAR     60  57  89 N6        30.14R
WAUSAU         PTCLDY    64  58  80 N8        30.11R
WIS RAPIDS     CLEAR     67  59  75 NE10      30.12R
MARSHFIELD     CLEAR     65  57  75 N9        30.12R
RICE LAKE      CLEAR     64  58  83 NW3       30.17R
$$

...NORTHEAST IOWA...


CITY           SKY/WX    TMP DP  RH WIND       PRES   REMARKS
WATERLOO       CLEAR     68  64  87 NW6       30.10R
DUBUQUE        CLEAR     73  66  78 N12       30.06R
DECORAH        CLEAR     70  63  78 VRB6      30.10R
MASON CITY     CLEAR     64  60  87 N9        30.17R
CHARLES CITY   CLEAR     66  63  88 N6        30.14R
OELWEIN        CLEAR     66  64  94 NW6       30.12R
$$

...ELSEWHERE IN IOWA...


CITY           SKY/WX    TMP DP  RH WIND       PRES   REMARKS
DES MOINES     CLEAR     76  64  66 N12       30.12R
IOWA CITY      CLEAR     78  68  71 N12       30.06R
FORT DODGE     CLEAR     66  59  77 N5        30.16S
MARSHALLTOWN   CLEAR     69  65  86 NW8       30.11R
CEDAR RAPIDS   CLEAR     74  66  76 N10       30.07R
$$

...NORTHERN ILLINOIS...


CITY           SKY/WX    TMP DP  RH WIND       PRES   REMARKS
CHICAGO-OHARE  CLOUDY    77  67  71 N20G28    30.00R
DUPAGE         CLOUDY    79  74  84 N9        29.99R HAZE
CHICAGO-MIDWAY TSTM      76  73  91 NE15G23   29.98R
MOLINE         CLEAR     80  69  69 N7        30.02R
ROCKFORD       PTCLDY    79  67  66 N18       30.02R
STERLING       MOCLDY    79  70  73 N6        30.01R
PEORIA         MOCLDY    80  74  81 SW5       30.00S
$$

NOTE: "FAIR" INDICATES FEW OR NO CLOUDS BELOW 12,000 FEET WITH NO
SIGNIFICANT WEATHER AND/OR OBSTRUCTIONS TO VISIBILITY. WIND
SPEEDS ARE IN MILES-PER-HOUR.



USA.gov is the U.S. government's official web portal to all federal, state and local government web resources and services.